Home   Weather   Tsu   Past weeks

Flag for Japan Past Weather in Tsu, Japan — Yesterday and Last 2 Weeks

Now
42 °F

Quite cool.


Feels Like: 42 °F
Forecast: 35 / 46 °F
Wind: 2 mph from Northeast

Location: Tsu

Current Time: Jan 20, 2017 at 1:09:45 pm

Latest Report: Jan 20, 2017 at 12:00 pm


Visibility: N/A

Pressure: 29.83 "Hg

Humidity: 63%

Dew Point: 30 °F

Location of TsuLocation

Past Weather in Tsu — Graph

°F

Tsu Temperature Yesterday

Maximum temperature yesterday: 49 °F (at 12:00 pm)
Minimum temperature yesterday: 39 °F (at 11:00 pm)
Average temperature yesterday: 44 °F

High & Low Weather Summary for the Past Weeks

 TemperatureHumidityPressure
High56 °F (Jan 9, 1:00 pm)89% (Jan 8, 8:00 pm)30.45 "Hg (Jan 8, 8:00 pm)
Low29 °F (Jan 15, 7:00 am)27% (Jan 13, 12:00 pm)29.63 "Hg (Jan 9, 12:00 am)
Average42 °F57%30.02 "Hg
* Reported Jan 5 11:00 am — Jan 20 11:00 am, Tsu, Weather by CustomWeather, © 2017

Note: Actual official high and low records may vary slightly from our data, if they occured in-between our weather recording intervals... More about our weather records

Advertising

Tsu Weather History for the Previous 24 Hours

Scroll right to see more
 ConditionsComfort  
Time TempWeatherWind HumidityBarometerVisibility
11:00 am
Fri, Jan 20
41 °FQuite cool.3 mph59%29.86 "HgN/A
10:00 am41 °FQuite cool.2 mph53%29.88 "HgN/A
9:00 am38 °FLight mixture of precip. Overcast.2 mph59%29.91 "Hg9 mi
8:00 am36 °FChilly.3 mph63%29.91 "HgN/A
7:00 am35 °FChilly.3 mph63%29.93 "HgN/A
6:00 am35 °FChilly.5 mph63%29.96 "HgN/A
5:00 am34 °FChilly.3 mph62%29.95 "HgN/A
4:00 am35 °FChilly.5 mph61%29.98 "HgN/A
3:00 am36 °FChilly.2 mph59%30.00 "HgN/A
2:00 am37 °FChilly.2 mph54%30.02 "HgN/A
1:00 am39 °FChilly.6 mph50%30.04 "HgN/A
12:00 am37 °FChilly.5 mph56%30.05 "HgN/A
11:00 pm
Thu, Jan 19
39 °FChilly.3 mph50%30.07 "HgN/A
10:00 pm40 °FQuite cool.5 mph43%30.07 "HgN/A
9:00 pm42 °FPassing clouds.6 mph41%30.07 "Hg9 mi
8:00 pm42 °FQuite cool.8 mph45%30.08 "HgN/A
7:00 pm43 °FQuite cool.10 mph46%30.09 "HgN/A
6:00 pm44 °FQuite cool.13 mph44%30.10 "HgN/A
5:00 pm45 °FQuite cool.15 mph45%30.11 "HgN/A
4:00 pm46 °FCool.17 mph41%30.11 "HgN/A
3:00 pm48 °FOvercast.15 mph41%30.10 "Hg9 mi
2:00 pm47 °FCool.14 mph40%30.11 "HgN/A
1:00 pm49 °FCool.13 mph38%30.10 "HgN/A
Weather by CustomWeather, © 2017

See weather overviewHow to use our weather pages